Location: Plymouth
(43.7570°N, 71.6890°W)
Time: 23:30:10
(UTC-04:00)

Amateur Radio Satellites - All Passes

Search period start: 27 June 2017 23:00
Search period end: 28 June 2017 23:00
Location: Plymouth, 43.7570°N, 71.6890°W

Satellite Date Start Highest point End Downlink Frequencies (MHz)
Time Altitude Azimuth
TIGRISAT 27 Jun 23:03:34 23:08:15 84° 285° (WNW) 23:12:48 435.000
AIST 2D 27 Jun 23:05:41 23:07:02 12° 90° (E) 23:08:24 435.315
O/OREOS (USA 219) 27 Jun 23:06:07 23:08:30 14° 311° (NW) 23:10:53 437.305
FO-29 27 Jun 23:07:35 23:15:25 72° 288° (WNW) 23:23:06 435.910
M-CUBED/EXP-1 PRIME 27 Jun 23:12:56 23:16:32 45° 293° (WNW) 23:20:24 437.505
NO-84 27 Jun 23:21:49 23:25:13 24° 342° (NNW) 23:28:45 435.350 FM
SO-50 27 Jun 23:24:46 23:28:50 33° 244° (WSW) 23:32:55 436.795
VELOX 1 27 Jun 23:25:49 23:29:16 23° 65° (ENE) 23:32:45 145.980
NANOSAT C BR1 27 Jun 23:27:15 23:27:20 10° 88° (E) 23:27:27 145.865
SPROUT 27 Jun 23:27:30 23:31:00 25° 67° (ENE) 23:34:31 437.525
BEESAT 2 27 Jun 23:27:34 23:28:53 11° 326° (NNW) 23:30:13 435.950
ESTCUBE 1 27 Jun 23:34:16 23:38:45 74° 257° (WSW) 23:43:15 437.505/2401.250
DX 1 27 Jun 23:39:28 23:40:53 11° 59° (ENE) 23:42:18 434.975-435.025
YUBILEINY 27 Jun 23:42:12 23:49:44 31° 293° (WNW) 23:57:22 435.215
PRISM 27 Jun 23:46:48 23:50:13 26° 293° (WNW) 23:53:39 437.425
UNISAT 6 27 Jun 23:46:58 23:50:59 29° 293° (WNW) 23:54:56 437.425
LO-87 27 Jun 23:49:13 23:52:07 23° 265° (W) 23:55:04 145.935 - 145.965
UKube-1 27 Jun 23:52:04 23:52:46 10° 58° (ENE) 23:53:30 .
POLYITAN 1 28 Jun 00:04:14 00:08:00 29° 96° (E) 00:11:44 437.675
QB50P2 28 Jun 00:15:00 00:19:06 42° 99° (E) 00:23:08 145.880/145.840
RS-15 28 Jun 00:23:41 00:34:14 31° 341° (NNW) 00:44:45 29.354- 29.394
AIST 2D 28 Jun 00:37:09 00:40:28 42° 288° (WNW) 00:43:46 435.315
EO-79 28 Jun 00:38:27 00:42:44 71° 101° (ESE) 00:46:59 145.935-145.965
TIGRISAT 28 Jun 00:43:13 00:44:06 11° 302° (WNW) 00:45:00 435.000
50 SAT 28 Jun 00:47:08 00:50:30 81° 76° (ENE) 00:53:53 437.505
DUCHIFAT 1 28 Jun 00:49:17 00:53:34 76° 104° (ESE) 00:57:47 145.980
Oscar 19 28 Jun 00:52:55 00:53:40 10° 87° (E) 00:54:26 437.125/150
FO-29 28 Jun 00:54:20 00:59:08 18° 307° (NW) 01:03:57 435.910
NANOSAT C BR1 28 Jun 00:59:18 01:03:34 75° 284° (WNW) 01:07:47 145.865
NO-84 28 Jun 01:00:59 01:04:00 18° 4° (N) 01:07:04 435.350 FM
VELOX 1 28 Jun 01:01:31 01:05:32 35° 262° (W) 01:09:35 145.980
SPROUT 28 Jun 01:02:58 01:06:46 31° 264° (W) 01:10:37 437.525
DX 1 28 Jun 01:12:06 01:16:25 80° 257° (WSW) 01:20:46 434.975-435.025
UKube-1 28 Jun 01:23:48 01:28:06 88° 263° (W) 01:32:26 .
POLYITAN 1 28 Jun 01:40:07 01:43:41 26° 293° (WNW) 01:47:13 437.675
BUGSAT 1 28 Jun 01:48:47 01:53:03 80° 284° (WNW) 01:57:16 437.445
QB50P2 28 Jun 01:51:32 01:54:34 19° 296° (WNW) 01:57:35 145.880/145.840
Gurwin Techsat 1B 28 Jun 02:04:02 02:08:49 33° 96° (E) 02:13:34 435.225
ITUPSAT 1 28 Jun 02:06:44 02:10:47 28° 66° (ENE) 02:14:52 437.325
BEESAT 28 Jun 02:14:38 02:18:55 33° 67° (ENE) 02:23:11 436.000
EO-79 28 Jun 02:16:07 02:17:54 12° 299° (WNW) 02:19:42 145.935-145.965
DUCHIFAT 1 28 Jun 02:27:06 02:28:37 12° 300° (WNW) 02:30:07 145.980
Oscar 19 28 Jun 02:28:35 02:33:44 86° 106° (ESE) 02:38:51 437.125/150
NO-84 28 Jun 02:38:43 02:42:39 32° 24° (NNE) 02:46:34 435.350 FM
RS-15 28 Jun 02:41:22 02:51:50 30° 16° (NNE) 03:01:59 29.354- 29.394
MOZHAYETS 4 28 Jun 02:58:43 03:03:14 55° 73° (ENE) 03:07:47
ITAMSAT 1 28 Jun 03:12:55 03:16:32 19° 92° (E) 03:20:07 435.822/435.867
AO-85 28 Jun 03:19:48 03:22:26 16° 40° (NE) 03:25:07 145.980
BEESAT 3 28 Jun 03:21:43 03:23:00 11° 34° (NNE) 03:24:18 437.485
Gurwin Techsat 1B 28 Jun 03:43:57 03:48:44 35° 294° (WNW) 03:53:29 435.225
ITUPSAT 1 28 Jun 03:44:05 03:48:29 35° 263° (W) 03:52:54 437.325
CUBESAT XI-V 28 Jun 03:47:20 03:51:30 34° 69° (ENE) 03:55:39 437.345
BEESAT 28 Jun 03:52:33 03:56:40 29° 264° (W) 04:00:50 436.000
Oscar 19 28 Jun 04:09:47 04:12:20 14° 302° (WNW) 04:14:53 437.125/150
AO-7 28 Jun 04:10:37 04:18:53 57° 103° (ESE) 04:27:03 .
KKS-1 28 Jun 04:12:53 04:17:04 42° 70° (ENE) 04:21:17 437.445
NO-84 28 Jun 04:16:11 04:20:32 64° 223° (SW) 04:24:48 435.350 FM
BEESAT 2 28 Jun 04:26:00 04:28:36 16° 39° (NE) 04:31:10 435.950
STARS 28 Jun 04:35:07 04:39:00 32° 68° (ENE) 04:42:56 437.465
MOZHAYETS 4 28 Jun 04:37:51 04:40:43 16° 269° (W) 04:43:36
ITAMSAT 1 28 Jun 04:51:13 04:56:22 59° 289° (WNW) 05:01:30 435.822/435.867
RS-15 28 Jun 04:55:16 05:07:26 63° 47° (NE) 05:18:58 29.354- 29.394
BEESAT 3 28 Jun 04:57:22 05:01:23 65° 54° (NE) 05:05:19 437.485
AO-85 28 Jun 04:59:08 05:03:14 73° 238° (WSW) 05:07:37 145.980
DOVE 4 28 Jun 05:02:03 05:03:55 12° 88° (E) 05:05:48 437.250
CUBESAT XI-V 28 Jun 05:25:02 05:28:54 26° 266° (W) 05:32:46 437.345
XW-2F 28 Jun 05:49:52 05:50:26 10° 89° (E) 05:51:00 145.980 - 146.000
KKS-1 28 Jun 05:50:37 05:53:48 19° 267° (W) 05:57:01 437.445
O/OREOS (USA 219) 28 Jun 05:54:05 05:57:35 22° 54° (NE) 06:01:03 437.305
XW-2D 28 Jun 05:54:41 05:56:34 13° 91° (E) 05:58:25 145.860 - 145.880
BEESAT 2 28 Jun 06:02:45 06:06:50 74° 239° (WSW) 06:10:50 435.950
XW-2B 28 Jun 06:03:19 06:05:43 16° 92° (E) 06:08:07 145.730 - 145.750
AO-7 28 Jun 06:03:51 06:11:18 37° 303° (WNW) 06:18:43 .
LilacSat-2 28 Jun 06:05:46 06:08:29 19° 93° (E) 06:11:11 437.200
STARS 28 Jun 06:11:42 06:15:21 25° 265° (W) 06:19:02 437.465
CUTE-I 28 Jun 06:15:11 06:19:30 24° 93° (E) 06:23:48 437.470
XW-2C 28 Jun 06:18:23 06:21:31 24° 95° (E) 06:24:37 145.795 - 145.815
KAITUO 1B 28 Jun 06:25:29 06:28:29 23° 95° (E) 06:31:26 145.475/437.950
BEESAT 3 28 Jun 06:36:45 06:38:25 12° 251° (WSW) 06:40:04 437.485
DOVE 4 28 Jun 06:37:08 06:42:07 86° 284° (WNW) 06:47:19 437.250
Tancredo 1 28 Jun 06:52:26 06:55:02 26° 138° (SE) 06:57:39 437.200
NUDT-PHONESAT 28 Jun 06:56:34 07:00:12 54° 100° (E) 07:03:48 437.300
HO-68 28 Jun 07:05:27 07:11:01 24° 92° (E) 07:16:31 435.675
STRAND 1 28 Jun 07:06:11 07:11:16 67° 73° (ENE) 07:16:25 437.568
RS-15 28 Jun 07:08:26 07:19:27 44° 252° (WSW) 07:29:59 29.354- 29.394
XW-2F 28 Jun 07:21:14 07:24:55 57° 286° (WNW) 07:28:34 145.980 - 146.000
XW-2D 28 Jun 07:27:23 07:30:59 44° 287° (WNW) 07:34:33 145.860 - 145.880
SEEDS 28 Jun 07:32:23 07:35:16 18° 92° (E) 07:38:09 437.485
O/OREOS (USA 219) 28 Jun 07:32:56 07:37:10 42° 253° (WSW) 07:41:22 437.305
XW-2B 28 Jun 07:36:35 07:40:03 36° 289° (WNW) 07:43:30 145.730 - 145.750
LilacSat-2 28 Jun 07:39:28 07:42:50 31° 290° (WNW) 07:46:11 437.200
FO-29 28 Jun 07:40:23 07:43:13 13° 48° (NE) 07:46:09 435.910
ISS 28 Jun 07:45:30 07:48:37 44° 141° (SE) 07:51:46 437.550
YUBILEINY 28 Jun 07:52:30 08:00:21 34° 68° (ENE) 08:08:06 435.215
XW-2C 28 Jun 07:52:34 07:55:37 24° 292° (WNW) 07:58:39 145.795 - 145.815
CUTE 1.7 + AOD 2 28 Jun 07:54:36 07:58:41 49° 99° (E) 08:02:45 437.475
CUTE-I 28 Jun 07:54:36 07:59:46 47° 291° (WNW) 08:04:53 437.470
KAITUO 1B 28 Jun 07:59:23 08:02:26 25° 291° (WNW) 08:05:28 145.475/437.950
AAUSAT CUBESAT 2 28 Jun 08:14:08 08:17:31 24° 94° (E) 08:20:52 437.432
AO-73 28 Jun 08:16:34 08:18:45 14° 89° (E) 08:20:56 145.935
DOVE 4 28 Jun 08:17:07 08:19:06 12° 300° (WNW) 08:21:07 437.250
M-CUBED/EXP-1 PRIME 28 Jun 08:27:09 08:29:34 19° 62° (ENE) 08:31:59 437.505
Tancredo 1 28 Jun 08:27:37 08:30:30 41° 335° (NNW) 08:33:24 437.200
TIGRISAT 28 Jun 08:29:32 08:31:26 12° 59° (ENE) 08:33:22 435.000
NUDT-PHONESAT 28 Jun 08:32:15 08:33:38 12° 297° (WNW) 08:35:00 437.300
XW-2A 28 Jun 08:34:03 08:37:27 70° 284° (WNW) 08:40:48 145.665 - 145.685
CUBEBUG 2 28 Jun 08:36:00 08:40:43 73° 102° (ESE) 08:45:17 437.445
Oscar 11 28 Jun 08:39:26 08:42:25 18° 92° (E) 08:45:23 .
STRAND 1 28 Jun 08:47:53 08:50:56 16° 270° (W) 08:54:01 437.568
ZACube-1 28 Jun 08:51:57 08:56:03 35° 96° (E) 09:00:02 437.345
HO-68 28 Jun 08:52:10 08:59:19 70° 290° (WNW) 09:06:24 435.675
PRISM 28 Jun 09:02:06 09:05:22 24° 67° (ENE) 09:08:38 437.425
UWE-3 28 Jun 09:03:30 09:08:07 85° 104° (ESE) 09:12:34 435.000/436.395/437.385
SEEDS 28 Jun 09:07:13 09:11:07 40° 289° (WNW) 09:15:00 437.485
UNISAT 6 28 Jun 09:09:56 09:14:01 32° 68° (ENE) 09:18:09 437.425
DELFI C3 28 Jun 09:15:54 09:16:40 10° 89° (E) 09:17:25 145.870
FO-29 28 Jun 09:20:30 09:26:38 62° 70° (ENE) 09:33:39 435.910
ISS 28 Jun 09:22:09 09:25:11 34° 340° (NNW) 09:28:13 437.550
CUTE 1.7 + AOD 2 28 Jun 09:31:32 09:34:07 16° 296° (WNW) 09:36:42 437.475
YUBILEINY 28 Jun 09:49:00 09:57:36 58° 269° (W) 10:06:07 435.215
AAUSAT CUBESAT 2 28 Jun 09:49:24 09:52:57 29° 291° (WNW) 09:56:31 437.432
AO-73 28 Jun 09:51:03 09:55:25 59° 286° (WNW) 09:59:39 145.935
M-CUBED/EXP-1 PRIME 28 Jun 10:01:17 10:03:56 23° 258° (WSW) 10:06:37 437.505
TIGRISAT 28 Jun 10:02:46 10:07:24 84° 256° (WSW) 10:12:08 435.000
Tancredo 1 28 Jun 10:04:23 10:06:38 18° 355° (N) 10:08:53 437.200
CUBEBUG 2 28 Jun 10:14:17 10:16:41 14° 300° (WNW) 10:19:04 437.445
Oscar 11 28 Jun 10:14:40 10:18:45 42° 289° (WNW) 10:22:48 .
NANOSAT C BR1 28 Jun 10:20:55 10:21:15 10° 59° (ENE) 10:21:36 145.865
ZACube-1 28 Jun 10:28:36 10:32:07 23° 294° (WNW) 10:35:33 437.345
PRISM 28 Jun 10:36:59 10:40:30 29° 263° (W) 10:44:05 437.425
HO-68 28 Jun 10:41:56 10:45:46 15° 311° (NW) 10:49:37 435.675
UWE-3 28 Jun 10:42:15 10:43:49 12° 301° (WNW) 10:45:23 435.000/436.395/437.385
UNISAT 6 28 Jun 10:46:40 10:50:41 29° 265° (W) 10:54:46 437.425
DELFI C3 28 Jun 10:47:55 10:51:49 63° 286° (WNW) 10:55:44 145.870
POLYITAN 1 28 Jun 10:57:54 11:01:31 27° 67° (ENE) 11:05:08 437.675
ISS 28 Jun 10:59:48 11:02:20 20° 360° (N) 11:04:52 437.550
EO-88 28 Jun 11:01:33 11:05:10 61° 284° (WNW) 11:08:45 145.990 - 145.960
FO-29 28 Jun 11:07:19 11:12:18 24° 271° (W) 11:17:47 435.910
QB50P2 28 Jun 11:08:32 11:12:28 37° 70° (ENE) 11:16:26 145.880/145.840
AIST 2D 28 Jun 11:12:00 11:15:32 77° 78° (ENE) 11:19:05 435.315
LO-87 28 Jun 11:14:25 11:17:23 23° 95° (E) 11:20:19 145.935 - 145.965
ESTCUBE 1 28 Jun 11:26:00 11:29:24 21° 93° (E) 11:32:46 437.505/2401.250
EO-79 28 Jun 11:31:36 11:35:48 61° 73° (ENE) 11:40:02 145.935-145.965
PCSat 28 Jun 11:35:23 11:40:44 64° 117° (ESE) 11:46:07 145.827
Tancredo 1 28 Jun 11:40:21 11:42:55 24° 15° (NNE) 11:45:29 437.200
DUCHIFAT 1 28 Jun 11:41:47 11:45:58 64° 74° (ENE) 11:50:11 145.980
NANOSAT C BR1 28 Jun 11:52:00 11:56:15 88° 264° (W) 12:00:33 145.865
Oscar 19 28 Jun 12:09:19 12:12:59 20° 62° (ENE) 12:16:38 437.125/150
POLYITAN 1 28 Jun 12:33:29 12:37:12 29° 264° (W) 12:40:58 437.675
ISS 28 Jun 12:36:29 12:39:30 32° 20° (NNE) 12:42:31 437.550
BUGSAT 1 28 Jun 12:39:07 12:43:16 82° 74° (ENE) 12:47:30 437.445
QB50P2 28 Jun 12:45:11 12:48:22 20° 267° (W) 12:51:36 145.880/145.840
SPROUT 28 Jun 12:46:44 12:50:46 38° 98° (E) 12:54:47 437.525
LO-87 28 Jun 12:47:46 12:50:44 24° 291° (WNW) 12:53:43 145.935 - 145.965
VELOX 1 28 Jun 12:49:41 12:53:49 37° 98° (E) 12:57:55 145.980
DX 1 28 Jun 13:00:02 13:02:42 16° 92° (E) 13:05:22 434.975-435.025
ESTCUBE 1 28 Jun 13:02:09 13:06:20 40° 290° (WNW) 13:10:31 437.505/2401.250
EO-79 28 Jun 13:10:03 13:11:57 13° 270° (W) 13:13:51 145.935-145.965
UKube-1 28 Jun 13:10:57 13:13:10 14° 91° (E) 13:15:22 .
Tancredo 1 28 Jun 13:15:42 13:18:45 78° 212° (SSW) 13:21:47 437.200
PCSat 28 Jun 13:20:12 13:24:34 24° 316° (NW) 13:28:59 145.827
DUCHIFAT 1 28 Jun 13:20:24 13:22:03 12° 271° (W) 13:23:43 145.980
AO-7 28 Jun 13:21:32 13:27:25 22° 49° (NE) 13:33:19 .
Gurwin Techsat 1B 28 Jun 13:26:13 13:31:25 60° 71° (ENE) 13:36:39 435.225
SO-50 28 Jun 13:39:28 13:43:54 55° 120° (ESE) 13:48:21 436.795
50 SAT 28 Jun 13:40:43 13:44:08 67° 102° (ESE) 13:47:32 437.505
Oscar 19 28 Jun 13:46:48 13:51:52 58° 259° (W) 13:56:57 437.125/150
ISS 28 Jun 14:12:54 14:16:05 48° 217° (SW) 14:19:16 437.550
SPROUT 28 Jun 14:23:11 14:26:26 21° 295° (WNW) 14:29:40 437.525
VELOX 1 28 Jun 14:26:34 14:30:03 23° 295° (WNW) 14:33:33 145.980
ITAMSAT 1 28 Jun 14:31:44 14:36:22 33° 66° (ENE) 14:41:00 435.822/435.867
DX 1 28 Jun 14:34:55 14:39:10 51° 288° (WNW) 14:43:24 434.975-435.025
UKube-1 28 Jun 14:45:17 14:49:33 58° 287° (WNW) 14:53:47 .
MOZHAYETS 4 28 Jun 14:54:38 14:56:08 11° 88° (E) 14:57:38
Gurwin Techsat 1B 28 Jun 15:08:05 15:11:46 19° 269° (W) 15:15:26 435.225
AO-7 28 Jun 15:10:41 15:19:01 83° 69° (ENE) 15:27:25 .
SO-50 28 Jun 15:21:04 15:24:40 23° 319° (NW) 15:28:17 436.795
ITUPSAT 1 28 Jun 15:42:38 15:47:20 52° 100° (E) 15:51:59 437.325
BEESAT 28 Jun 15:50:20 15:55:06 64° 102° (ESE) 15:59:49 436.000
DOVE 4 28 Jun 16:09:54 16:11:21 12° 59° (ENE) 16:12:49 437.250
ITAMSAT 1 28 Jun 16:11:06 16:15:46 33° 263° (W) 16:20:29 435.822/435.867
MOZHAYETS 4 28 Jun 16:29:14 16:33:50 75° 286° (WNW) 16:38:23
XW-2B 28 Jun 16:47:24 16:48:25 11° 62° (ENE) 16:49:27 145.730 - 145.750
LilacSat-2 28 Jun 16:49:58 16:51:42 13° 63° (ENE) 16:53:26 437.200
XW-2C 28 Jun 17:01:32 17:03:56 16° 65° (ENE) 17:06:20 145.795 - 145.815
AO-7 28 Jun 17:06:37 17:12:41 22° 269° (W) 17:18:49 .
KAITUO 1B 28 Jun 17:07:35 17:09:40 14° 65° (ENE) 17:11:45 145.475/437.950
CUBESAT XI-V 28 Jun 17:19:02 17:23:39 70° 102° (ESE) 17:28:13 437.345
ITUPSAT 1 28 Jun 17:21:23 17:24:46 20° 298° (WNW) 17:28:08 437.325
BEESAT 28 Jun 17:29:25 17:32:22 16° 299° (WNW) 17:35:17 436.000
HO-68 28 Jun 17:36:25 17:41:39 22° 55° (NE) 17:46:54 435.675
NUDT-PHONESAT 28 Jun 17:36:57 17:40:15 29° 70° (ENE) 17:43:32 437.300
CUTE-I 28 Jun 17:38:00 17:43:02 44° 69° (ENE) 17:48:06 437.470
KKS-1 28 Jun 17:38:26 17:42:56 72° 103° (ESE) 17:47:25 437.445
DOVE 4 28 Jun 17:44:12 17:48:22 75° 258° (WSW) 17:52:44 437.250
STARS 28 Jun 17:58:38 18:02:58 50° 100° (E) 18:07:17 437.465
XW-2F 28 Jun 18:02:41 18:06:30 78° 75° (ENE) 18:10:19 145.980 - 146.000
XW-2D 28 Jun 18:09:07 18:12:57 81° 258° (WSW) 18:16:48 145.860 - 145.880
XW-2B 28 Jun 18:18:16 18:22:05 65° 259° (W) 18:25:54 145.730 - 145.750
LilacSat-2 28 Jun 18:21:44 18:25:31 55° 260° (W) 18:29:20 437.200
SEEDS 28 Jun 18:25:46 18:28:18 16° 64° (ENE) 18:30:50 437.485
XW-2C 28 Jun 18:34:10 18:37:48 40° 262° (W) 18:41:27 145.795 - 145.815
KAITUO 1B 28 Jun 18:39:41 18:43:18 44° 261° (W) 18:46:56 145.475/437.950
PCSat 28 Jun 18:39:49 18:42:54 15° 35° (NE) 18:45:58 145.827
CUTE 1.7 + AOD 2 28 Jun 18:48:10 18:52:09 41° 71° (ENE) 18:56:08 437.475
CUBESAT XI-V 28 Jun 18:58:03 19:00:27 14° 299° (WNW) 19:02:50 437.345
AAUSAT CUBESAT 2 28 Jun 19:05:47 19:08:45 20° 66° (ENE) 19:11:44 437.432
XW-2A 28 Jun 19:06:08 19:09:25 43° 73° (ENE) 19:12:42 145.665 - 145.685
NUDT-PHONESAT 28 Jun 19:11:21 19:14:10 20° 266° (W) 19:17:00 437.300
AO-73 28 Jun 19:13:15 19:15:43 15° 62° (ENE) 19:18:11 145.935
AO-85 28 Jun 19:15:39 19:18:52 23° 115° (ESE) 19:22:02 145.980
STRAND 1 28 Jun 19:16:10 19:20:00 21° 92° (E) 19:23:48 437.568
KKS-1 28 Jun 19:16:44 19:18:54 13° 300° (WNW) 19:21:04 437.445
CUTE-I 28 Jun 19:18:52 19:23:15 25° 266° (W) 19:27:39 437.470
RS-15 28 Jun 19:21:04 19:31:11 33° 103° (ESE) 19:41:26 29.354- 29.394
HO-68 28 Jun 19:21:22 19:28:34 83° 254° (WSW) 19:35:50 435.675
CUBEBUG 2 28 Jun 19:34:33 19:39:09 69° 74° (ENE) 19:43:53 437.445
Oscar 11 28 Jun 19:35:43 19:38:36 18° 64° (ENE) 19:41:29 .
STARS 28 Jun 19:35:56 19:38:56 18° 297° (WNW) 19:41:54 437.465
NO-84 28 Jun 19:36:24 19:37:39 11° 121° (ESE) 19:38:57 435.350 FM
ZACube-1 28 Jun 19:48:25 19:52:32 34° 69° (ENE) 19:56:41 437.345
BEESAT 2 28 Jun 19:56:58 19:58:54 13° 109° (ESE) 20:00:51 435.950
SEEDS 28 Jun 19:59:31 20:03:35 50° 260° (W) 20:07:40 437.485
UWE-3 28 Jun 20:00:52 20:05:29 78° 75° (ENE) 20:10:11 435.000/436.395/437.385
O/OREOS (USA 219) 28 Jun 20:08:30 20:11:35 18° 101° (E) 20:14:39 437.305
PCSat 28 Jun 20:21:55 20:27:21 67° 57° (ENE) 20:32:45 145.827
BEESAT 3 28 Jun 20:25:00 20:28:57 75° 123° (ESE) 20:33:00 437.485
CUTE 1.7 + AOD 2 28 Jun 20:25:12 20:28:09 18° 268° (W) 20:31:07 437.475
SO-50 28 Jun 20:30:13 20:32:36 14° 33° (NNE) 20:34:59 436.795
AAUSAT CUBESAT 2 28 Jun 20:40:07 20:43:57 37° 262° (W) 20:47:48 437.432
XW-2A 28 Jun 20:41:11 20:42:23 11° 269° (W) 20:43:36 145.665 - 145.685
AO-73 28 Jun 20:46:50 20:51:23 68° 259° (W) 20:55:57 145.935
STRAND 1 28 Jun 20:54:28 20:59:28 52° 290° (WNW) 21:04:26 437.568
AO-85 28 Jun 20:55:23 20:59:05 35° 312° (NW) 21:02:43 145.980
YUBILEINY 28 Jun 20:55:27 21:03:11 36° 84° (E) 21:10:58 435.215
Oscar 11 28 Jun 21:10:10 21:14:22 48° 261° (W) 21:18:35 .
NO-84 28 Jun 21:10:38 21:14:29 83° 138° (SE) 21:18:40 435.350 FM
HO-68 28 Jun 21:13:29 21:17:20 15° 273° (W) 21:21:11 435.675
CUBEBUG 2 28 Jun 21:14:00 21:16:16 13° 272° (W) 21:18:33 437.445
ZACube-1 28 Jun 21:25:01 21:28:50 26° 266° (W) 21:32:41 437.345
RS-15 28 Jun 21:30:17 21:42:31 79° 306° (NW) 21:54:59 29.354- 29.394
BEESAT 2 28 Jun 21:32:11 21:36:08 62° 307° (NW) 21:40:10 435.950
DELFI C3 28 Jun 21:34:00 21:37:54 84° 77° (ENE) 21:41:51 145.870
M-CUBED/EXP-1 PRIME 28 Jun 21:37:46 21:39:50 14° 99° (E) 21:41:57 437.505
EO-88 28 Jun 21:39:59 21:43:37 65° 75° (ENE) 21:47:16 145.990 - 145.960
UWE-3 28 Jun 21:40:56 21:42:29 11° 273° (W) 21:44:03 435.000/436.395/437.385
O/OREOS (USA 219) 28 Jun 21:46:13 21:50:36 47° 298° (WNW) 21:55:00 437.305
LO-87 28 Jun 21:53:06 21:54:38 12° 64° (ENE) 21:56:10 145.935 - 145.965
TIGRISAT 28 Jun 21:53:57 21:57:17 19° 91° (E) 22:00:32 435.000
BEESAT 3 28 Jun 22:04:32 22:07:02 16° 322° (NW) 22:09:33 437.485
PCSat 28 Jun 22:06:32 22:10:11 19° 255° (WSW) 22:13:49 145.827
SO-50 28 Jun 22:09:21 22:13:53 71° 53° (NE) 22:18:25 436.795
FO-29 28 Jun 22:12:42 22:20:26 55° 99° (E) 22:27:56 435.910
PRISM 28 Jun 22:16:22 22:20:03 31° 97° (E) 22:23:43 437.425
ESTCUBE 1 28 Jun 22:26:46 22:30:17 23° 66° (ENE) 22:33:50 437.505/2401.250
UNISAT 6 28 Jun 22:36:16 22:40:52 56° 100° (E) 22:45:19 437.425
NO-84 28 Jun 22:49:04 22:52:31 26° 340° (NNW) 22:56:09 435.350 FM
